Tracking 26442 objects as of 7-Dec-2022
HD Live streaming from Space Station
objects crossing your sky now

COSMOS 1408 DEB

Track COSMOS 1408 DEB now!
10-day predictions


NORAD ID: 51922
Int'l Code: 1982-092BSY
Perigee: 437.4 km
Apogee: 489.2 km
Inclination: 82.6 °
Period: 93.7 minutes
Semi major axis: 6834 km
RCS: Unknown
Launch date: September 16, 1982
Source: Commonwealth of Independent States (former USSR) (CIS)
Launch site: PLESETSK MISSILE AND SPACE COMPLEX (PKMTR)

Note: This is SATELLITE DEBRIS
aabbcc
Your satellite tracking list
Your tracking list is empty




NASA's NSSDC Master Catalog

Two Line Element Set (TLE):
1 51922U 82092BSY 22340.34477982  .00046598  00000-0  12668-2 0  9992
2 51922  82.5826 100.5643 0037932 123.9615 236.5244 15.36605866 44956
Source of the keplerian elements: AFSPC